Date String (YYYY-MM-DD hh:mm:ss) UTC,Instrument flags,Ambient pressure (hPa),Sample flow (lpm),Bypass flow (lpm),Sample temperature (°C),Ambient temperature (°C),ASC tube jacket temperature (°C),LED temperature (°C),Box temperature (°C),Sample RH (%),Span deviation,Mass concentration (μg/m³),Mass concentration (μg/m³),Mass concentration (μg/m³)
DateTimeUTC,F1_M11,P_M11,Q1_M11,Q2_M11,T1_M11,T2_M11,T3_M11,T4_M11,T5_M11,U1_M11,ZSPAN_M11,X0_M11,X2_M11,X1_M11
2022-07-28 13:00:00,,0832.8,4.99,0.00,31.6,29.7,00.0,40.2,32.9,31.0,0000.0,0010.62,0005.25,0004.55
2022-07-28 13:01:00,,0832.8,5.01,0.00,31.5,29.7,00.0,40.2,32.9,30.8,0000.0,0010.55,0005.01,0004.34
2022-07-28 13:02:00,,0832.9,4.99,0.00,31.5,29.7,00.0,40.2,32.9,30.8,0000.0,0010.37,0004.79,0004.14
2022-07-28 13:03:00,,0832.9,5.00,0.00,31.5,29.7,00.0,40.2,32.9,30.8,0000.0,0010.28,0004.49,0003.93
2022-07-28 13:04:00,,0832.8,5.00,0.00,31.5,29.7,00.0,40.2,32.9,30.8,0000.0,0009.94,0004.23,0003.70
2022-07-28 13:05:00,,0832.8,5.00,0.00,31.5,29.7,00.0,40.2,32.9,30.9,0000.0,0009.64,0003.99,0003.48
2022-07-28 13:06:00,,0832.8,5.00,0.00,31.4,29.8,00.0,40.1,32.9,30.9,0000.0,0009.54,0003.82,0003.30
2022-07-28 13:07:00,,0832.8,5.00,0.00,31.4,29.8,00.0,40.1,32.9,31.0,0000.0,0009.30,0003.62,0003.11
2022-07-28 13:08:00,,0832.8,4.99,0.00,31.4,29.8,00.0,40.1,32.9,31.0,0000.0,0009.12,0003.44,0002.81
2022-07-28 13:09:00,,0832.8,5.01,0.00,31.4,29.8,00.0,40.1,32.9,31.0,0000.0,0008.48,0003.27,0002.56
2022-07-28 13:10:00,,0832.8,5.00,0.00,31.4,29.8,00.0,40.1,32.9,30.9,0000.0,0008.17,0003.15,0002.37
2022-07-28 13:11:00,,0832.9,5.00,0.00,31.4,29.8,00.0,40.1,32.9,30.8,0000.0,0007.00,0003.05,0002.25
2022-07-28 13:12:00,,0832.8,5.00,0.00,31.4,29.8,00.0,40.1,32.9,30.7,0000.0,0007.06,0002.95,0002.15
2022-07-28 13:13:00,,0832.8,5.00,0.00,31.4,29.8,00.0,40.1,32.9,30.6,0000.0,0006.62,0002.75,0002.00
2022-07-28 13:14:00,,0832.8,4.99,0.00,31.4,29.8,00.0,40.1,32.9,30.6,0000.0,0005.92,0002.59,0001.87
2022-07-28 13:15:00,,0832.8,5.01,0.00,31.3,29.8,00.0,40.1,32.9,30.6,0000.0,0005.78,0002.45,0001.77
2022-07-28 13:16:00,,0832.9,4.99,0.00,31.3,29.3,00.0,40.0,32.8,30.6,0000.0,0005.65,0002.37,0001.71
2022-07-28 13:17:00,,0832.8,5.00,0.00,31.3,28.2,00.0,39.9,32.6,30.5,0000.0,0005.48,0002.27,0001.67
2022-07-28 13:18:00,,0832.8,4.99,0.00,31.2,27.6,00.0,39.8,32.4,30.7,0000.0,0005.40,0002.21,0001.62
2022-07-28 13:19:00,,0832.8,5.00,0.00,31.0,27.5,00.0,39.8,32.2,31.4,0000.0,0005.37,0002.16,0001.58
2022-07-28 13:20:00,,0832.8,5.01,0.00,30.9,27.5,00.0,39.7,32.1,31.6,0000.0,0005.26,0002.08,0001.53
2022-07-28 13:21:00,,0832.7,4.99,0.00,30.8,27.7,00.0,39.7,32.1,31.5,0000.0,0005.20,0002.05,0001.49
2022-07-28 13:22:00,,0832.7,5.02,0.00,30.7,27.9,00.0,39.6,32.1,31.6,0000.0,0005.27,0002.03,0001.46
2022-07-28 13:23:00,,0832.7,4.99,0.00,30.7,28.0,00.0,39.6,32.1,31.7,0000.0,0005.15,0001.96,0001.42
2022-07-28 13:24:00,,0832.7,5.02,0.00,30.6,28.2,00.0,39.6,32.1,31.6,0000.0,0003.82,0001.94,0001.40
2022-07-28 13:25:00,,0832.7,5.00,0.00,30.6,28.3,00.0,39.5,32.1,31.7,0000.0,0003.81,0001.95,0001.37
2022-07-28 13:26:00,,0832.7,5.00,0.00,30.6,28.5,00.0,39.5,32.1,31.9,0000.0,0003.74,0001.92,0001.35
2022-07-28 13:27:00,,0832.8,5.01,0.00,30.6,28.6,00.0,39.5,32.1,32.1,0000.0,0003.71,0001.88,0001.30
2022-07-28 13:28:00,,0832.7,5.00,0.00,30.6,28.7,00.0,39.4,32.2,31.9,0000.0,0003.56,0001.79,0001.24
2022-07-28 13:29:00,,0832.7,5.00,0.00,30.6,28.8,00.0,39.4,32.2,31.7,0000.0,0003.52,0001.76,0001.19
2022-07-28 13:30:00,,0832.7,5.00,0.00,30.6,28.9,00.0,39.4,32.2,31.6,0000.0,0003.56,0001.75,0001.13
2022-07-28 13:31:00,,0832.7,5.00,0.00,30.6,28.9,00.0,39.4,32.2,32.1,0000.0,0003.50,0001.73,0001.10
2022-07-28 13:32:00,,0832.7,5.00,0.00,30.6,29.0,00.0,39.4,32.2,32.1,0000.0,0003.53,0001.73,0001.06
2022-07-28 13:33:00,,0832.7,4.99,0.00,30.6,29.0,00.0,39.4,32.2,32.0,0000.0,0003.49,0001.70,0001.03
2022-07-28 13:34:00,,0832.8,4.99,0.00,30.6,29.1,00.0,39.4,32.3,32.0,0000.0,0003.39,0001.72,0001.01
2022-07-28 13:35:00,,0832.8,5.00,0.00,30.6,29.1,00.0,39.4,32.3,31.9,0000.0,0003.29,0001.72,0001.00
2022-07-28 13:36:00,,0832.7,5.00,0.00,30.6,29.2,00.0,39.4,32.3,32.2,0000.0,0003.43,0001.73,0000.98
2022-07-28 13:37:00,,0832.7,4.99,0.00,30.6,29.2,00.0,39.4,32.3,32.4,0000.0,0003.51,0001.75,0000.96
2022-07-28 13:38:00,,0832.7,5.00,0.00,30.6,29.2,00.0,39.4,32.3,32.6,0000.0,0003.53,0001.77,0000.97
2022-07-28 13:39:00,,0832.7,5.00,0.00,30.6,29.3,00.0,39.4,32.3,32.8,0000.0,0003.61,0001.81,0000.99
2022-07-28 13:40:00,,0832.8,5.00,0.00,30.6,29.3,00.0,39.4,32.4,32.5,0000.0,0003.71,0001.81,0000.99
2022-07-28 13:41:00,,0832.8,5.00,0.00,30.6,29.3,00.0,39.4,32.4,32.7,0000.0,0003.67,0001.82,0001.00
2022-07-28 13:42:00,,0832.8,5.00,0.00,30.6,29.3,00.0,39.4,32.4,32.6,0000.0,0003.64,0001.81,0001.01
2022-07-28 13:43:00,,0832.8,5.01,0.00,30.6,29.4,00.0,39.4,32.4,32.2,0000.0,0003.59,0001.77,0001.01
2022-07-28 13:44:00,,0832.8,5.01,0.00,30.6,29.4,00.0,39.4,32.4,32.1,0000.0,0003.72,0001.79,0001.00
2022-07-28 13:45:00,,0832.9,5.00,0.00,30.6,29.4,00.0,39.4,32.4,32.3,0000.0,0003.76,0001.84,0001.01
2022-07-28 13:46:00,,0832.9,5.01,0.00,30.7,29.4,00.0,39.4,32.4,32.3,0000.0,0003.81,0001.87,0001.01
2022-07-28 13:47:00,,0832.8,4.99,0.00,30.7,29.4,00.0,39.4,32.5,32.0,0000.0,0003.66,0001.84,0001.02
2022-07-28 13:48:00,,0832.9,5.00,0.00,30.7,29.5,00.0,39.4,32.5,32.0,0000.0,0003.55,0001.80,0001.03
2022-07-28 13:49:00,,0832.8,5.00,0.00,30.7,29.5,00.0,39.4,32.5,32.1,0000.0,0003.49,0001.79,0001.02
2022-07-28 13:50:00,,0832.8,5.01,0.00,30.7,29.4,00.0,39.4,32.5,32.3,0000.0,0003.76,0001.74,0001.00
2022-07-28 13:51:00,,0832.8,5.00,0.00,30.7,28.7,00.0,39.4,32.3,32.7,0000.0,0004.69,0001.80,0001.01
2022-07-28 13:52:00,,0832.9,5.00,0.00,30.6,28.0,00.0,39.3,32.2,33.2,0000.0,0004.80,0001.82,0001.00
2022-07-28 13:53:00,,0832.9,4.99,0.00,30.5,27.8,00.0,39.3,32.1,33.3,0000.0,0004.82,0001.80,0001.00
2022-07-28 13:54:00,,0832.9,5.00,0.00,30.4,27.9,00.0,39.3,32.0,33.2,0000.0,0005.07,0001.88,0001.01
2022-07-28 13:55:00,,0832.8,5.01,0.00,30.4,28.0,00.0,39.2,32.0,33.3,0000.0,0005.03,0001.88,0001.01
2022-07-28 13:56:00,,0832.7,4.99,0.00,30.3,28.1,00.0,39.2,32.0,33.4,0000.0,0005.33,0001.86,0001.02
2022-07-28 13:57:00,,0832.7,5.00,0.00,30.3,28.2,00.0,39.2,32.0,33.6,0000.0,0005.82,0001.80,0001.03
2022-07-28 13:58:00,,0832.7,5.00,0.00,30.3,28.3,00.0,39.2,32.0,33.7,0000.0,0005.78,0001.80,0001.03
2022-07-28 13:59:00,,0832.7,5.00,0.00,30.3,28.4,00.0,39.1,32.0,33.6,0000.0,0006.35,0001.86,0001.05
